Location: Newark
(25.4297°S, 49.2719°W)
Time: 13:19:24
(UTC+00:00)

Tiros 1 - Pass Details

Date: 19 November 2019
Orbit: 630 x 664 km, 48.4° (Epoch: 05 December)

Event Time Altitude Azimuth Distance (km) Brightness Sun altitude
Exits shadow 04:43:18 16° 151° (SSE) 1,755 10.0 -38.9°
Drops below altitude 10° 04:44:15 10° 147° (SSE) 2,098 10.5 -38.8°
Sets 04:46:42 0° 141° (SE) 3,014 11.5 -38.5°
